User:    Logout
Location:
(unspecified)
Time: 11:39:21
(UTC+00:00)
Language:

Cosmos 1459 Rocket - Orbit

View from above orbital plane
View from above orbital plane
View from above satellite
View from above satellite

Ground track
Ground track

The orbit data is extracted from the following two-line orbital elements,

1 14059U 83042B   17209.93546727 -.00000056 +00000-0 -70813-4 0  9994
2 14059 082.9699 030.9430 0043346 148.1085 212.2711 13.78590367721241
Epoch (UTC): 28 July 2017 22:27:04
Eccentricity: 0.0043346
inclination: 82.9699°
perigee height: 937 km
apogee height: 1001 km
right ascension of ascending node: 30.9430°
argument of perigee: 148.1085°
revolutions per day: 13.78590367
mean anomaly at epoch: 212.2711°
orbit number at epoch: 72124

The dashed part of the orbit path shows where the satellite is in the earth's shadow,  

DLR